Flag for Albania Weather past 2 weeks in Durrës, Albania

Now
45 °F

Passing clouds.


Feels Like: 45 °F
Forecast: 54 / 60 °F
Wind: 2 mph from North

Location: Tirana Airport

Current Time: Mar 29, 2015 at 5:40:59 AM

Latest Report: Mar 29, 2015 at 4:50 AM


Visibility: N/A

Pressure: 29.77 "Hg

Humidity: 81%

Dew point: 39 °F

Location of DurrësLocation

Historic Weather in Durrës — Graph

°F

Durrës temperature yesterday

Maximum temperature yesterday: 59 °F (at 9:20 AM)
Minimum temperature yesterday: 46 °F (at 11:50 PM)
Average temperature yesterday: 54 °F

Past Weeks' High & Low Weather Summary

 TemperatureHumidityPressure
High73 °F (Mar 26, 2:20 PM)94% (Mar 23, 7:50 AM)30.42 "Hg (Mar 23, 7:50 AM)
Low28 °F (Mar 21, 5:50 AM)12% (Mar 21, 1:20 PM)29.56 "Hg (Mar 27, 11:20 AM)
Average52 °F63%30.03 "Hg
* Reported Mar 14 3:20 AM — Mar 29 4:20 AM, Durrës, Weather by CustomWeather, © 2015

Note: Actual official high and low records may vary slightly from our data, if they occured in-between our weather recording intervals... More about our weather records

Advertising

Durrës weather history for previous 24 hours

 ConditionsComfort  
Time TempWeatherWind HumidityBarometerVisibility
4:20 AM
Sun, Mar 29
46 °FPassing clouds.3 mph76%29.77 "HgN/A
3:50 AM46 °FPartly cloudy.3 mph76%29.77 "HgN/A
3:20 AM46 °FPassing clouds.2 mph76%29.77 "HgN/A
1:50 AM48 °FPassing clouds.2 mph71%29.77 "HgN/A
1:20 AM48 °FPassing clouds.2 mph66%29.77 "HgN/A
12:50 AM46 °FPassing clouds.No wind76%29.77 "HgN/A
12:20 AM46 °FPassing clouds.No wind76%29.77 "HgN/A
11:50 PM
Sat, Mar 28
46 °FPassing clouds.2 mph71%29.77 "HgN/A
11:20 PM50 °FPassing clouds.6 mph54%29.77 "HgN/A
10:50 PM52 °FPassing clouds.9 mph50%29.77 "HgN/A
9:50 PM50 °FPassing clouds.8 mph58%29.77 "HgN/A
9:20 PM50 °FPassing clouds.7 mph58%29.74 "HgN/A
8:50 PM52 °FPassing clouds.9 mph54%29.74 "HgN/A
8:20 PM52 °FPassing clouds.7 mph54%29.74 "HgN/A
7:50 PM54 °FPassing clouds.7 mph51%29.74 "HgN/A
7:20 PM52 °FPassing clouds.10 mph54%29.74 "HgN/A
6:50 PM54 °FPassing clouds.8 mph54%29.71 "HgN/A
6:20 PM54 °FPassing clouds.9 mph51%29.71 "HgN/A
5:50 PM55 °FPartly sunny.8 mph51%29.71 "HgN/A
5:20 PM57 °FPartly sunny.9 mph48%29.68 "HgN/A
4:50 PM55 °FPartly sunny.10 mph55%29.68 "HgN/A
4:20 PM55 °FBroken clouds.13 mph51%29.68 "HgN/A
3:50 PM55 °FBroken clouds.12 mph55%29.68 "HgN/A
3:20 PM55 °FBroken clouds.12 mph55%29.68 "HgN/A
2:50 PM57 °FBroken clouds.10 mph55%29.68 "HgN/A
2:20 PM59 °FBroken clouds.10 mph48%29.68 "HgN/A
1:50 PM59 °FBroken clouds.12 mph48%29.68 "HgN/A
1:20 PM59 °FPartly sunny.10 mph48%29.68 "HgN/A
12:50 PM59 °FPartly sunny.12 mph45%29.68 "HgN/A
12:20 PM57 °FBroken clouds.9 mph51%29.65 "HgN/A
11:50 AM59 °FPartly sunny.9 mph51%29.68 "HgN/A
11:20 AM57 °FPartly sunny.10 mph51%29.68 "HgN/A
10:50 AM57 °FBroken clouds.9 mph51%29.65 "HgN/A
10:20 AM57 °FBroken clouds.8 mph51%29.65 "HgN/A
9:50 AM57 °FBroken clouds.12 mph51%29.65 "HgN/A
9:20 AM59 °FBroken clouds.8 mph59%29.65 "HgN/A
8:50 AM57 °FBroken clouds.5 mph63%29.65 "HgN/A
8:20 AM55 °FBroken clouds.No wind82%29.65 "HgN/A
7:50 AM54 °FBroken clouds.2 mph94%29.65 "HgN/A
7:20 AM52 °FBroken clouds.2 mph94%29.62 "HgN/A
6:50 AM54 °FBroken clouds.2 mph88%29.62 "HgN/A
6:20 AM52 °FBroken clouds.2 mph94%29.62 "HgN/A
5:50 AM52 °FBroken clouds.5 mph94%29.62 "HgN/A
5:20 AM52 °FPartly cloudy.2 mph94%29.62 "HgN/A
Weather by CustomWeather, © 2015

See weather overviewHow to use our weather pages